Location: Antoign�
(47.0844°N, 0.1131°W)
Time: 00:35:04
(UTC+00:00)

Cosmos 1862 Rocket - Pass Details

Date: 03 March 2021
Orbit: 603 x 634 km, 82.5° (Epoch: 14 April)

Event Time Altitude Azimuth Distance (km) Brightness Sun altitude
Rises 18:59:15 0° 347° (NNW) 2,944 7.3 -12.8°
Reaches altitude 10° 19:01:31 10° 344° (NNW) 2,031 6.5 -13.1°
Maximum altitude 19:05:57 59° 265° (W) 737 4.3 -13.9°
Drops below altitude 10° 19:10:20 10° 186° (S) 2,008 6.2 -14.6°
Sets 19:12:34 0° 183° (S) 2,907 7.0 -15.0°
